"Sample Date","Sample Time","Sample Value","Units","Flow Rate","Sample Interval","Number Channels","Micron Size 0","Counts/Channel 0","Micron Size 1","Counts/Channel 1","Micron Size 2","Counts/Channel 2","Micron Size 3","Counts/Channel 3","Micron Size 4","Counts/Channel 4","Micron Size 5","Counts/Channel 5","Micron Size 6","Counts/Channel 6","Micron Size 7","Counts/Channel 7","Micron Size 8","Counts/Channel 8","Micron Size 9","Counts/Channel 9","Micron Size 10","Counts/Channel 10","Micron Size 11","Counts/Channel 11","Micron Size 12","Counts/Channel 12","Micron Size 13","Counts/Channel 13","Micron Size 14","Counts/Channel 14","Micron Size 15","Counts/Channel 15","Micron Size 16","Counts/Channel 16","Micron Size 17","Counts/Channel 17","Micron Size 18","Counts/Channel 18","Micron Size 19","Counts/Channel 19","Micron Size 20","Counts/Channel 20","Micron Size 21","Counts/Channel 21","Micron Size 22","Counts/Channel 22","Micron Size 23","Counts/Channel 23","Micron Size 24","Counts/Channel 24","Micron Size 25","Counts/Channel 25","Micron Size 26","Counts/Channel 26","Micron Size 27","Counts/Channel 27","Micron Size 28","Counts/Channel 28","Micron Size 29","Counts/Channel 29","Micron Size 30","Counts/Channel 30","Micron Size 31","Counts/Channel 31"
"03/11/08","20:00:00",258384.000,"cc",28273.582,6.00,6,0.100,225539.000,0.200,25518.000,0.300,3534.000,0.500,2757.000,1.000,1036.000,5.000,0
"03/11/08","20:00:06",335973.000,"cc",28301.471,6.00,6,0.100,292011.000,0.200,35502.000,0.300,4368.000,0.500,3010.000,1.000,1082.000,5.000,0
"03/11/08","20:00:12",280759.000,"cc",28360.352,6.00,6,0.100,242739.000,0.200,29878.000,0.300,4234.000,0.500,2880.000,1.000,1028.000,5.000,0
"03/11/08","20:00:18",279667.000,"cc",28352.926,6.00,6,0.100,245341.000,0.200,27051.000,0.300,3538.000,0.500,2754.000,1.000,983.000,5.000,0
"03/11/08","20:00:24",254560.000,"cc",28327.381,6.00,6,0.100,222303.000,0.200,25015.000,0.300,3564.000,0.500,2675.000,1.000,1003.000,5.000,0
"03/11/08","20:00:30",224485.000,"cc",28262.420,6.00,6,0.100,195539.000,0.200,21686.000,0.300,3450.000,0.500,2778.000,1.000,1032.000,5.000,0
"03/11/08","20:00:36",153737.000,"cc",28249.588,6.00,6,0.100,132746.000,0.200,14327.000,0.300,2935.000,0.500,2786.000,1.000,943.000,5.000,0
"03/11/08","20:00:42",229255.000,"cc",28292.383,6.00,6,0.100,201788.000,0.200,20602.000,0.300,3206.000,0.500,2665.000,1.000,994.000,5.000,0
"03/11/08","20:00:48",315472.000,"cc",28325.244,6.00,6,0.100,277771.000,0.200,30306.000,0.300,3741.000,0.500,2701.000,1.000,953.000,5.000,0
"03/11/08","20:00:54",289371.000,"cc",28342.914,6.00,6,0.100,255431.000,0.200,26880.000,0.300,3548.000,0.500,2599.000,1.000,913.000,5.000,0
"03/11/08","20:01:00",257219.000,"cc",28368.594,6.00,6,0.100,226229.000,0.200,24097.000,0.300,3389.000,0.500,2595.000,1.000,909.000,5.000,0
"03/11/08","20:01:06",200803.000,"cc",28334.180,6.00,6,0.100,176567.000,0.200,17636.000,0.300,2961.000,0.500,2694.000,1.000,945.000,5.000,0
"03/11/08","20:01:12",183390.000,"cc",28318.758,6.00,6,0.100,161364.000,0.200,15514.000,0.300,2888.000,0.500,2670.000,1.000,954.000,5.000,0
"03/11/08","20:01:18",132672.000,"cc",28346.270,6.00,6,0.100,115256.000,0.200,10984.000,0.300,2707.000,0.500,2716.000,1.000,1009.000,5.000,0
"03/11/08","20:01:24",115889.000,"cc",28293.494,6.00,6,0.100,100012.000,0.200,9600.000,0.300,2681.000,0.500,2668.000,1.000,928.000,5.000,0
"03/11/08","20:01:30",143133.000,"cc",28274.389,6.00,6,0.100,124515.000,0.200,12452.000,0.300,2690.000,0.500,2477.000,1.000,999.000,5.000,0
"03/11/08","20:01:36",177252.000,"cc",28354.803,6.00,6,0.100,154300.000,0.200,16302.000,0.300,2878.000,0.500,2789.000,1.000,983.000,5.000,0
"03/11/08","20:01:42",220669.000,"cc",28301.791,6.00,6,0.100,193373.000,0.200,20310.000,0.300,3174.000,0.500,2804.000,1.000,1008.000,5.000,0
"03/11/08","20:01:48",192562.000,"cc",28295.074,6.00,6,0.100,168499.000,0.200,17102.000,0.300,3125.000,0.500,2838.000,1.000,998.000,5.000,0
"03/11/08","20:01:54",259983.000,"cc",28297.398,6.00,6,0.100,227075.000,0.200,25747.000,0.300,3401.000,0.500,2801.000,1.000,959.000,5.000,0
"03/11/08","20:02:00",268336.000,"cc",28330.137,6.00,6,0.100,224334.000,0.200,36407.000,0.300,3846.000,0.500,2784.000,1.000,965.000,5.000,0
"03/11/08","20:02:06",190962.000,"cc",28304.096,6.00,6,0.100,158677.000,0.200,25533.000,0.300,3189.000,0.500,2664.000,1.000,899.000,5.000,0
"03/11/08","20:02:12",227218.000,"cc",28332.400,6.00,6,0.100,199800.000,0.200,20723.000,0.300,3078.000,0.500,2703.000,1.000,914.000,5.000,0
"03/11/08","20:02:18",311134.000,"cc",28339.219,6.00,6,0.100,271497.000,0.200,31797.000,0.300,3900.000,0.500,2906.000,1.000,1034.000,5.000,0
"03/11/08","20:02:24",214988.000,"cc",28307.953,6.00,6,0.100,188097.000,0.200,19868.000,0.300,3228.000,0.500,2815.000,1.000,980.000,5.000,0
"03/11/08","20:02:30",240847.000,"cc",28326.553,6.00,6,0.100,210182.000,0.200,23683.000,0.300,3269.000,0.500,2760.000,1.000,953.000,5.000,0
"03/11/08","20:02:36",260479.000,"cc",28342.656,6.00,6,0.100,227725.000,0.200,25680.000,0.300,3341.000,0.500,2766.000,1.000,967.000,5.000,0
"03/11/08","20:02:42",273681.000,"cc",28323.574,6.00,6,0.100,240208.000,0.200,26617.000,0.300,3297.000,0.500,2621.000,1.000,938.000,5.000,0
"03/11/08","20:02:48",327751.000,"cc",28330.545,6.00,6,0.100,274684.000,0.200,44495.000,0.300,4624.000,0.500,2905.000,1.000,1043.000,5.000,0
"03/11/08","20:02:54",296842.000,"cc",28235.795,6.00,6,0.100,259993.000,0.200,29208.000,0.300,3771.000,0.500,2827.000,1.000,1043.000,5.000,0
"03/11/08","20:03:00",196509.000,"cc",28349.076,6.00,6,0.100,161750.000,0.200,27551.000,0.300,3562.000,0.500,2737.000,1.000,909.000,5.000,0
"03/11/08","20:03:06",214553.000,"cc",28359.068,6.00,6,0.100,188077.000,0.200,19833.000,0.300,3051.000,0.500,2611.000,1.000,981.000,5.000,0
"03/11/08","20:03:12",215323.000,"cc",28323.754,6.00,6,0.100,188986.000,0.200,19653.000,0.300,3055.000,0.500,2688.000,1.000,941.000,5.000,0
"03/11/08","20:03:18",213047.000,"cc",28313.941,6.00,6,0.100,187006.000,0.200,19492.000,0.300,2979.000,0.500,2624.000,1.000,946.000,5.000,0
"03/11/08","20:03:24",241852.000,"cc",28321.854,6.00,6,0.100,212389.000,0.200,22694.000,0.300,3189.000,0.500,2659.000,1.000,921.000,5.000,0
"03/11/08","20:03:30",282321.000,"cc",28297.732,6.00,6,0.100,247978.000,0.200,27186.000,0.300,3470.000,0.500,2729.000,1.000,958.000,5.000,0
"03/11/08","20:03:36",270168.000,"cc",28294.930,6.00,6,0.100,237520.000,0.200,25782.000,0.300,3315.000,0.500,2626.000,1.000,925.000,5.000,0
"03/11/08","20:03:42",125017.000,"cc",28263.272,6.00,6,0.100,108344.000,0.200,10676.000,0.300,2555.000,0.500,2485.000,1.000,957.000,5.000,0
"03/11/08","20:03:48",147022.000,"cc",28326.498,6.00,6,0.100,127850.000,0.200,12682.000,0.300,2706.000,0.500,2818.000,1.000,966.000,5.000,0
"03/11/08","20:03:54",294955.000,"cc",28389.492,6.00,6,0.100,247681.000,0.200,39935.000,0.300,3844.000,0.500,2595.000,1.000,900.000,5.000,0
"03/11/08","20:04:00",291430.000,"cc",28252.289,6.00,6,0.100,254744.000,0.200,29451.000,0.300,3626.000,0.500,2706.000,1.000,903.000,5.000,0
"03/11/08","20:04:06",203508.000,"cc",28307.695,6.00,6,0.100,178611.000,0.200,18436.000,0.300,2947.000,0.500,2615.000,1.000,899.000,5.000,0
"03/11/08","20:04:12",216620.000,"cc",28377.477,6.00,6,0.100,190118.000,0.200,19653.000,0.300,3092.000,0.500,2781.000,1.000,976.000,5.000,0
"03/11/08","20:04:18",211527.000,"cc",28270.518,6.00,6,0.100,185974.000,0.200,18975.000,0.300,2991.000,0.500,2625.000,1.000,962.000,5.000,0
"03/11/08","20:04:24",273147.000,"cc",28330.848,6.00,6,0.100,228438.000,0.200,36910.000,0.300,3988.000,0.500,2793.000,1.000,1018.000,5.000,0
"03/11/08","20:04:30",275273.000,"cc",28298.559,6.00,6,0.100,241058.000,0.200,26943.000,0.300,3430.000,0.500,2862.000,1.000,980.000,5.000,0
"03/11/08","20:04:36",274963.000,"cc",28310.416,6.00,6,0.100,241065.000,0.200,26517.000,0.300,3555.000,0.500,2852.000,1.000,974.000,5.000,0
"03/11/08","20:04:42",285600.000,"cc",28385.990,6.00,6,0.100,250356.000,0.200,27862.000,0.300,3505.000,0.500,2847.000,1.000,1030.000,5.000,0
"03/11/08","20:04:48",219570.000,"cc",28290.869,6.00,6,0.100,191910.000,0.200,20348.000,0.300,3462.000,0.500,2821.000,1.000,1029.000,5.000,0
"03/11/08","20:04:54",300733.000,"cc",28334.043,6.00,6,0.100,262066.000,0.200,30730.000,0.300,3934.000,0.500,3026.000,1.000,977.000,5.000,0
"03/11/08","20:05:00",224712.000,"cc",28253.289,6.00,6,0.100,196566.000,0.200,20991.000,0.300,3294.000,0.500,2877.000,1.000,984.000,5.000,0
"03/11/08","20:05:06",196078.000,"cc",28356.674,6.00,6,0.100,170341.000,0.200,18281.000,0.300,3370.000,0.500,3036.000,1.000,1050.000,5.000,0
"03/11/08","20:05:12",319758.000,"cc",28308.770,6.00,6,0.100,278768.000,0.200,32953.000,0.300,4021.000,0.500,3008.000,1.000,1008.000,5.000,0
"03/11/08","20:05:18",155175.000,"cc",28303.301,6.00,6,0.100,134715.000,0.200,13756.000,0.300,2896.000,0.500,2802.000,1.000,1006.000,5.000,0
"03/11/08","20:05:24",200462.000,"cc",28311.688,6.00,6,0.100,175893.000,0.200,18063.000,0.300,2915.000,0.500,2649.000,1.000,942.000,5.000,0
"03/11/08","20:05:30",196460.000,"cc",28316.367,6.00,6,0.100,172090.000,0.200,17672.000,0.300,2997.000,0.500,2732.000,1.000,969.000,5.000,0
"03/11/08","20:05:36",263673.000,"cc",28327.135,6.00,6,0.100,231384.000,0.200,24703.000,0.300,3634.000,0.500,2918.000,1.000,1034.000,5.000,0
"03/11/08","20:05:42",286974.000,"cc",28325.033,6.00,6,0.100,250303.000,0.200,29200.000,0.300,3694.000,0.500,2779.000,1.000,998.000,5.000,0
"03/11/08","20:05:48",282644.000,"cc",28287.256,6.00,6,0.100,246970.000,0.200,27952.000,0.300,3740.000,0.500,2958.000,1.000,1024.000,5.000,0
"03/11/08","20:05:54",288857.000,"cc",28289.100,6.00,6,0.100,252591.000,0.200,28826.000,0.300,3583.000,0.500,2858.000,1.000,999.000,5.000,0
"03/11/08","20:06:00",186166.000,"cc",28351.510,6.00,6,0.100,162828.000,0.200,16680.000,0.300,2893.000,0.500,2773.000,1.000,992.000,5.000,0
"03/11/08","20:06:06",233312.000,"cc",28308.209,6.00,6,0.100,203704.000,0.200,22384.000,0.300,3413.000,0.500,2806.000,1.000,1005.000,5.000,0
"03/11/08","20:06:12",283426.000,"cc",28377.801,6.00,6,0.100,248415.000,0.200,27700.000,0.300,3463.000,0.500,2870.000,1.000,978.000,5.000,0
"03/11/08","20:06:18",265252.000,"cc",28315.690,6.00,6,0.100,232465.000,0.200,25367.000,0.300,3554.000,0.500,2863.000,1.000,1003.000,5.000,0
"03/11/08","20:06:24",282702.000,"cc",28310.527,6.00,6,0.100,246484.000,0.200,28293.000,0.300,3852.000,0.500,3029.000,1.000,1044.000,5.000,0
"03/11/08","20:06:30",196641.000,"cc",28297.846,6.00,6,0.100,171763.000,0.200,18060.000,0.300,3082.000,0.500,2742.000,1.000,994.000,5.000,0
"03/11/08","20:06:36",258666.000,"cc",28301.766,6.00,6,0.100,226640.000,0.200,24861.000,0.300,3391.000,0.500,2834.000,1.000,940.000,5.000,0
"03/11/08","20:06:42",337824.000,"cc",28279.398,6.00,6,0.100,294109.000,0.200,35777.000,0.300,4130.000,0.500,2858.000,1.000,950.000,5.000,0
"03/11/08","20:06:48",254230.000,"cc",28312.910,6.00,6,0.100,223043.000,0.200,24188.000,0.300,3327.000,0.500,2693.000,1.000,979.000,5.000,0
"03/11/08","20:06:54",277532.000,"cc",28321.637,6.00,6,0.100,243066.000,0.200,27071.000,0.300,3528.000,0.500,2870.000,1.000,997.000,5.000,0
"03/11/08","20:07:00",257985.000,"cc",28339.566,6.00,6,0.100,226005.000,0.200,25030.000,0.300,3312.000,0.500,2639.000,1.000,999.000,5.000,0
"03/11/08","20:07:06",210687.000,"cc",28335.869,6.00,6,0.100,184744.000,0.200,19364.000,0.300,2982.000,0.500,2655.000,1.000,942.000,5.000,0
"03/11/08","20:07:12",214755.000,"cc",28319.018,6.00,6,0.100,188175.000,0.200,19766.000,0.300,3082.000,0.500,2777.000,1.000,955.000,5.000,0
"03/11/08","20:07:18",266456.000,"cc",28260.748,6.00,6,0.100,231567.000,0.200,26866.000,0.300,3929.000,0.500,3049.000,1.000,1044.000,5.000,1.000
"03/11/08","20:07:24",251175.000,"cc",28378.729,6.00,6,0.100,219967.000,0.200,23864.000,0.300,3526.000,0.500,2844.000,1.000,974.000,5.000,0
"03/11/08","20:07:30",293470.000,"cc",28354.949,6.00,6,0.100,254610.000,0.200,29964.000,0.300,4553.000,0.500,3273.000,1.000,1070.000,5.000,0
"03/11/08","20:07:36",252307.000,"cc",28230.152,6.00,6,0.100,221564.000,0.200,23548.000,0.300,3424.000,0.500,2804.000,1.000,967.000,5.000,0
"03/11/08","20:07:42",186394.000,"cc",28308.920,6.00,6,0.100,163023.000,0.200,16551.000,0.300,3013.000,0.500,2819.000,1.000,988.000,5.000,0
"03/11/08","20:07:48",164739.000,"cc",28289.940,6.00,6,0.100,143127.000,0.200,14631.000,0.300,3116.000,0.500,2878.000,1.000,987.000,5.000,0
"03/11/08","20:07:54",251577.000,"cc",28306.934,6.00,6,0.100,220519.000,0.200,23562.000,0.300,3612.000,0.500,2851.000,1.000,1033.000,5.000,0
"03/11/08","20:08:00",206528.000,"cc",28381.898,6.00,6,0.100,181747.000,0.200,17844.000,0.300,3070.000,0.500,2887.000,1.000,980.000,5.000,0
"03/11/08","20:08:06",175178.000,"cc",28269.822,6.00,6,0.100,153013.000,0.200,15176.000,0.300,3043.000,0.500,2922.000,1.000,1024.000,5.000,0
"03/11/08","20:08:12",176583.000,"cc",28319.000,6.00,6,0.100,154214.000,0.200,15763.000,0.300,2937.000,0.500,2727.000,1.000,942.000,5.000,0
"03/11/08","20:08:18",188361.000,"cc",28326.361,6.00,6,0.100,165562.000,0.200,16352.000,0.300,2769.000,0.500,2749.000,1.000,929.000,5.000,0
"03/11/08","20:08:24",246187.000,"cc",28259.799,6.00,6,0.100,216977.000,0.200,22079.000,0.300,3257.000,0.500,2860.000,1.000,1014.000,5.000,0
"03/11/08","20:08:30",280431.000,"cc",28311.900,6.00,6,0.100,247411.000,0.200,25914.000,0.300,3273.000,0.500,2841.000,1.000,992.000,5.000,0
"03/11/08","20:08:36",181585.000,"cc",28284.867,6.00,6,0.100,159997.000,0.200,15040.000,0.300,2879.000,0.500,2703.000,1.000,965.000,5.000,1.000
"03/11/08","20:08:42",106555.000,"cc",28316.650,6.00,6,0.100,91007.000,0.200,8811.000,0.300,2736.000,0.500,2888.000,1.000,1113.000,5.000,0
"03/11/08","20:08:48",163234.000,"cc",28291.875,6.00,6,0.100,141822.000,0.200,14449.000,0.300,3024.000,0.500,2918.000,1.000,1021.000,5.000,0
"03/11/08","20:08:54",257246.000,"cc",28347.402,6.00,6,0.100,226219.000,0.200,23667.000,0.300,3281.000,0.500,3037.000,1.000,1042.000,5.000,0
"03/11/08","20:09:00",228229.000,"cc",28377.701,6.00,6,0.100,200955.000,0.200,19940.000,0.300,3289.000,0.500,2916.000,1.000,1129.000,5.000,0
"03/11/08","20:09:06",305234.000,"cc",28349.803,6.00,6,0.100,266981.000,0.200,29722.000,0.300,4125.000,0.500,3225.000,1.000,1181.000,5.000,0
"03/11/08","20:09:12",181656.000,"cc",28295.367,6.00,6,0.100,157637.000,0.200,16553.000,0.300,3321.000,0.500,3020.000,1.000,1125.000,5.000,0
"03/11/08","20:09:18",230051.000,"cc",28289.061,6.00,6,0.100,200857.000,0.200,21987.000,0.300,3293.000,0.500,2904.000,1.000,1010.000,5.000,0
"03/11/08","20:09:24",250520.000,"cc",28342.857,6.00,6,0.100,219657.000,0.200,22922.000,0.300,3616.000,0.500,3148.000,1.000,1177.000,5.000,0
"03/11/08","20:09:30",280182.000,"cc",28333.492,6.00,6,0.100,245297.000,0.200,26582.000,0.300,3863.000,0.500,3171.000,1.000,1269.000,5.000,0
"03/11/08","20:09:36",180854.000,"cc",28337.799,6.00,6,0.100,156499.000,0.200,16309.000,0.300,3497.000,0.500,3348.000,1.000,1201.000,5.000,0
"03/11/08","20:09:42",218286.000,"cc",28281.772,6.00,6,0.100,191480.000,0.200,19590.000,0.300,3207.000,0.500,2948.000,1.000,1061.000,5.000,0
"03/11/08","20:09:48",252564.000,"cc",28323.428,6.00,6,0.100,222001.000,0.200,23272.000,0.300,3401.000,0.500,2825.000,1.000,1065.000,5.000,0
"03/11/08","20:09:54",319458.000,"cc",28342.412,6.00,6,0.100,279863.000,0.200,31908.000,0.300,3679.000,0.500,2933.000,1.000,1075.000,5.000,0
"03/11/08","20:10:00",312272.000,"cc",28318.170,6.00,6,0.100,274236.000,0.200,30364.000,0.300,3762.000,0.500,2885.000,1.000,1025.000,5.000,0
"03/11/08","20:10:06",226329.000,"cc",28338.900,6.00,6,0.100,198741.000,0.200,20326.000,0.300,3389.000,0.500,2829.000,1.000,1044.000,5.000,0
"03/11/08","20:10:12",196889.000,"cc",28275.307,6.00,6,0.100,173015.000,0.200,17016.000,0.300,3074.000,0.500,2760.000,1.000,1024.000,5.000,0
"03/11/08","20:10:18",308433.000,"cc",28279.148,6.00,6,0.100,271110.000,0.200,29781.000,0.300,3532.000,0.500,2945.000,1.000,1065.000,5.000,0
"03/11/08","20:10:24",211613.000,"cc",28350.502,6.00,6,0.100,185658.000,0.200,19298.000,0.300,3026.000,0.500,2683.000,1.000,948.000,5.000,0
"03/11/08","20:10:30",189837.000,"cc",28323.113,6.00,6,0.100,157238.000,0.200,25362.000,0.300,3486.000,0.500,2808.000,1.000,943.000,5.000,0
"03/11/08","20:10:36",293674.000,"cc",28252.723,6.00,6,0.100,258022.000,0.200,28599.000,0.300,3414.000,0.500,2600.000,1.000,1039.000,5.000,0
"03/11/08","20:10:42",193615.000,"cc",28390.926,6.00,6,0.100,170135.000,0.200,16778.000,0.300,2912.000,0.500,2833.000,1.000,957.000,5.000,0
"03/11/08","20:10:48",194995.000,"cc",28318.943,6.00,6,0.100,171700.000,0.200,16769.000,0.300,2785.000,0.500,2771.000,1.000,970.000,5.000,0
"03/11/08","20:10:54",201635.000,"cc",28216.863,6.00,6,0.100,175830.000,0.200,19187.000,0.300,2908.000,0.500,2748.000,1.000,962.000,5.000,0
"03/11/08","20:11:00",270395.000,"cc",28371.873,6.00,6,0.100,237385.000,0.200,26077.000,0.300,3320.000,0.500,2657.000,1.000,956.000,5.000,0
"03/11/08","20:11:06",204094.000,"cc",28345.053,6.00,6,0.100,178490.000,0.200,18806.000,0.300,3026.000,0.500,2781.000,1.000,991.000,5.000,0
"03/11/08","20:11:12",203778.000,"cc",28346.510,6.00,6,0.100,178456.000,0.200,18891.000,0.300,2838.000,0.500,2630.000,1.000,963.000,5.000,0
"03/11/08","20:11:18",267700.000,"cc",28299.838,6.00,6,0.100,233738.000,0.200,27147.000,0.300,3084.000,0.500,2749.000,1.000,982.000,5.000,0
"03/11/08","20:11:24",157938.000,"cc",28303.428,6.00,6,0.100,137724.000,0.200,14191.000,0.300,2554.000,0.500,2550.000,1.000,919.000,5.000,0
"03/11/08","20:11:30",218444.000,"cc",28321.162,6.00,6,0.100,190080.000,0.200,21493.000,0.300,3139.000,0.500,2774.000,1.000,958.000,5.000,0
"03/11/08","20:11:36",116809.000,"cc",28318.570,6.00,6,0.100,100667.000,0.200,9910.000,0.300,2559.000,0.500,2713.000,1.000,960.000,5.000,0
"03/11/08","20:11:42",206829.000,"cc",28351.104,6.00,6,0.100,181780.000,0.200,18487.000,0.300,2935.000,0.500,2665.000,1.000,962.000,5.000,0
"03/11/08","20:11:48",182851.000,"cc",28311.736,6.00,6,0.100,160198.000,0.200,16062.000,0.300,2936.000,0.500,2730.000,1.000,925.000,5.000,0
"03/11/08","20:11:54",173534.000,"cc",28313.754,6.00,6,0.100,150961.000,0.200,16129.000,0.300,2764.000,0.500,2704.000,1.000,976.000,5.000,0
"03/11/08","20:12:00",134604.000,"cc",28321.520,6.00,6,0.100,116594.000,0.200,11876.000,0.300,2478.000,0.500,2694.000,1.000,962.000,5.000,0
"03/11/08","20:12:06",139684.000,"cc",28331.309,6.00,6,0.100,121923.000,0.200,11665.000,0.300,2503.000,0.500,2632.000,1.000,961.000,5.000,0
"03/11/08","20:12:12",208061.000,"cc",28353.016,6.00,6,0.100,182876.000,0.200,18843.000,0.300,2718.000,0.500,2692.000,1.000,932.000,5.000,0
"03/11/08","20:12:18",180716.000,"cc",28317.740,6.00,6,0.100,157954.000,0.200,16365.000,0.300,2765.000,0.500,2707.000,1.000,925.000,5.000,0
"03/11/08","20:12:24",160384.000,"cc",28247.574,6.00,6,0.100,139599.000,0.200,14620.000,0.300,2662.000,0.500,2593.000,1.000,910.000,5.000,0
"03/11/08","20:12:30",157750.000,"cc",28314.652,6.00,6,0.100,137557.000,0.200,13872.000,0.300,2632.000,0.500,2717.000,1.000,972.000,5.000,0
"03/11/08","20:12:36",133313.000,"cc",28342.090,6.00,6,0.100,115320.000,0.200,11737.000,0.300,2512.000,0.500,2746.000,1.000,998.000,5.000,0
"03/11/08","20:12:42",95708.000,"cc",28256.160,6.00,6,0.100,81693.000,0.200,7947.000,0.300,2509.000,0.500,2643.000,1.000,916.000,5.000,0
"03/11/08","20:12:48",75406.000,"cc",28318.809,6.00,6,0.100,63089.000,0.200,6323.000,0.300,2368.000,0.500,2692.000,1.000,934.000,5.000,0
"03/11/08","20:12:54",88661.000,"cc",28327.328,6.00,6,0.100,74800.000,0.200,7510.000,0.300,2609.000,0.500,2775.000,1.000,967.000,5.000,0
"03/11/08","20:13:00",69127.000,"cc",28305.611,6.00,6,0.100,57045.000,0.200,5910.000,0.300,2474.000,0.500,2734.000,1.000,964.000,5.000,0
"03/11/08","20:13:06",90378.000,"cc",28331.336,6.00,6,0.100,76846.000,0.200,7530.000,0.300,2416.000,0.500,2663.000,1.000,923.000,5.000,0
"03/11/08","20:13:12",99526.000,"cc",28335.807,6.00,6,0.100,85207.000,0.200,8435.000,0.300,2377.000,0.500,2514.000,1.000,993.000,5.000,0
"03/11/08","20:13:18",75515.000,"cc",28305.740,6.00,6,0.100,63050.000,0.200,6486.000,0.300,2416.000,0.500,2617.000,1.000,946.000,5.000,0
"03/11/08","20:13:24",74735.000,"cc",28307.715,6.00,6,0.100,62372.000,0.200,6457.000,0.300,2307.000,0.500,2588.000,1.000,1011.000,5.000,0
"03/11/08","20:13:30",86129.000,"cc",28323.818,6.00,6,0.100,71707.000,0.200,7836.000,0.300,2786.000,0.500,2850.000,1.000,950.000,5.000,0
"03/11/08","20:13:36",69903.000,"cc",28294.623,6.00,6,0.100,58319.000,0.200,5821.000,0.300,2330.000,0.500,2497.000,1.000,936.000,5.000,0
"03/11/08","20:13:42",123700.000,"cc",28193.834,6.00,6,0.100,106510.000,0.200,10708.000,0.300,2729.000,0.500,2775.000,1.000,978.000,5.000,0
"03/11/08","20:13:48",57187.000,"cc",28334.637,6.00,6,0.100,46625.000,0.200,4830.000,0.300,2281.000,0.500,2573.000,1.000,878.000,5.000,0
"03/11/08","20:13:54",98743.000,"cc",28335.066,6.00,6,0.100,84504.000,0.200,8152.000,0.300,2512.000,0.500,2622.000,1.000,953.000,5.000,0
"03/11/08","20:14:00",85751.000,"cc",28282.889,6.00,6,0.100,73097.000,0.200,6895.000,0.300,2271.000,0.500,2594.000,1.000,894.000,5.000,0
"03/11/08","20:14:06",70533.000,"cc",28377.020,6.00,6,0.100,58287.000,0.200,6029.000,0.300,2490.000,0.500,2765.000,1.000,962.000,5.000,0
"03/11/08","20:14:12",53463.000,"cc",28331.744,6.00,6,0.100,43340.000,0.200,4301.000,0.300,2309.000,0.500,2556.000,1.000,957.000,5.000,0
"03/11/08","20:14:18",67590.000,"cc",28295.600,6.00,6,0.100,55241.000,0.200,6013.000,0.300,2600.000,0.500,2718.000,1.000,1018.000,5.000,0
"03/11/08","20:14:24",106363.000,"cc",28269.469,6.00,6,0.100,90836.000,0.200,9289.000,0.300,2617.000,0.500,2645.000,1.000,976.000,5.000,0
"03/11/08","20:14:30",88653.000,"cc",28268.795,6.00,6,0.100,75645.000,0.200,7167.000,0.300,2361.000,0.500,2569.000,1.000,911.000,5.000,0
"03/11/08","20:14:36",213490.000,"cc",28399.496,6.00,6,0.100,186652.000,0.200,19870.000,0.300,3229.000,0.500,2781.000,1.000,958.000,5.000,0
"03/11/08","20:14:42",187582.000,"cc",28329.359,6.00,6,0.100,163753.000,0.200,17151.000,0.300,3048.000,0.500,2657.000,1.000,973.000,5.000,0
"03/11/08","20:14:48",189539.000,"cc",28315.225,6.00,6,0.100,165411.000,0.200,17609.000,0.300,2948.000,0.500,2660.000,1.000,911.000,5.000,0
"03/11/08","20:14:54",110732.000,"cc",28338.291,6.00,6,0.100,95297.000,0.200,9601.000,0.300,2397.000,0.500,2557.000,1.000,880.000,5.000,0
"03/11/08","20:15:00",201719.000,"cc",28324.180,6.00,6,0.100,176872.000,0.200,18514.000,0.300,2829.000,0.500,2584.000,1.000,920.000,5.000,0
"03/11/08","20:15:06",181513.000,"cc",28318.242,6.00,6,0.100,159427.000,0.200,15686.000,0.300,2809.000,0.500,2596.000,1.000,995.000,5.000,0
"03/11/08","20:15:12",190837.000,"cc",28375.244,6.00,6,0.100,167000.000,0.200,17287.000,0.300,2906.000,0.500,2710.000,1.000,934.000,5.000,0
"03/11/08","20:15:18",188398.000,"cc",28265.576,6.00,6,0.100,165080.000,0.200,17084.000,0.300,2645.000,0.500,2712.000,1.000,877.000,5.000,0
"03/11/08","20:15:24",301601.000,"cc",28262.029,6.00,6,0.100,264994.000,0.200,29289.000,0.300,3485.000,0.500,2831.000,1.000,1002.000,5.000,0
"03/11/08","20:15:30",331766.000,"cc",28341.293,6.00,6,0.100,278080.000,0.200,46065.000,0.300,3883.000,0.500,2777.000,1.000,961.000,5.000,0
"03/11/08","20:15:36",289172.000,"cc",28333.334,6.00,6,0.100,252853.000,0.200,29064.000,0.300,3470.000,0.500,2826.000,1.000,959.000,5.000,0
"03/11/08","20:15:42",260869.000,"cc",28364.354,6.00,6,0.100,227250.000,0.200,25807.000,0.300,3715.000,0.500,3092.000,1.000,1005.000,5.000,0
"03/11/08","20:15:48",253270.000,"cc",28309.990,6.00,6,0.100,221982.000,0.200,24242.000,0.300,3286.000,0.500,2731.000,1.000,1029.000,5.000,0
"03/11/08","20:15:54",307922.000,"cc",28308.652,6.00,6,0.100,268541.000,0.200,31760.000,0.300,3680.000,0.500,2967.000,1.000,973.000,5.000,1.000
"03/11/08","20:16:00",207852.000,"cc",28277.217,6.00,6,0.100,182122.000,0.200,19272.000,0.300,2848.000,0.500,2672.000,1.000,938.000,5.000,0